Location: Newark
(26.8229°N, 81.7649°W)
Time: 06:40:17
(UTC+00:00)

Hubble Space Telescope - Pass Details

Date: 29 January 2020
Orbit: 536 x 540 km, 28.5° (Epoch: 27 February)

Event Time Altitude Azimuth Distance (km) Brightness Sun altitude
Exits shadow 10:29:41 24° 186° (S) 1,131 2.4 -23.3°
Maximum altitude 10:30:53 28° 156° (SSE) 1,016 2.4 -23.1°
Drops below altitude 10° 10:34:26 10° 97° (E) 1,777 4.6 -22.3°
Sets 10:36:54 0° 85° (E) 2,669 5.7 -21.7°
